Weather History for West Palm Beach, FL

Change the Weather History Date:

Friday, December 16, 2011

  Actual Average Record
Temperature  
Mean Temperature 74 °F 68 °F  
Max Temperature 79 °F 76 °F 86 °F (1927)
Min Temperature 69 °F 60 °F 33 °F (1968)
Degree Days  
Heating Degree Days 0 2  
Month to date heating degree days 2 22  
Since 1 July heating degree days 3 34  
Cooling Degree Days 9 5  
Month to date cooling degree days 141 89  
Year to date cooling degree days 4711 3955  
Growing Degree Days 24 (Base 50)    
Moisture  
Dew Point 65 °F    
Average Humidity 80    
Maximum Humidity 100    
Minimum Humidity 60    
Precipitation  
Precipitation 0.03 in 0.11 in 1.70 in (1892)
Month to date precipitation 0.40 1.70  
Year to date precipitation 47.39 60.65  
Snow  
Snow 0.00 in - - ()
Month to date snowfall 0.0  
Since 1 July snowfall 0.0  
Snow Depth 0.00 in    
Sea Level Pressure  
Sea Level Pressure 30.16 in    
Wind  
Wind Speed 9 mph (East)    
Max Wind Speed 18 mph    
Max Gust Speed 23 mph    
Visibility 10 miles    
Events Rain    
T = Trace of Precipitation, MM = Missing Value Source: NWS Daily Summary

Daily Weather History Graph

Daily Weather History Graph

Search for Another Location

Airport:

Trip Planner

Search our weather history database for the weather conditions in past years. The results will help you decide how hot, cold, wet, or windy it might be!

Date:

Astronomy

Dec. 16, 2011 Rise Set
Actual Time 7:01 AM EST 5:30 PM EST
Civil Twilight 6:36 AM EST 5:55 PM EST
Nautical Twilight 6:07 AM EST 6:24 PM EST
Astronomical Twilight 5:39 AM EST 6:52 PM EST
Moon 11:29 PM EST (12/16) 11:15 AM EST (12/16)
Length of Visible Light 11h 19m
Length of Day
10h 28m
Waning Gibbous, 65% of the Moon is Illuminated
Dec 16
Waning Gibbous
Dec 17
Last Quarter
Dec 24
New
Jan 1
First Quarter
Jan 9
Full

Hourly Weather History & Observations

Time (EST) Temp. Dew Point Humidity Pressure Visibility Wind Dir Wind Speed Gust Speed Precip Events Conditions
12:53 AM 73.0 °F 61.0 °F 66% 30.15 in 10.0 mi ESE 11.5 mph - N/A   Overcast
1:53 AM 73.0 °F 59.0 °F 61% 30.14 in 10.0 mi East 10.4 mph - N/A   Mostly Cloudy
2:53 AM 73.0 °F 61.0 °F 66% 30.14 in 10.0 mi East 8.1 mph - N/A   Mostly Cloudy
3:53 AM 73.0 °F 61.0 °F 66% 30.14 in 10.0 mi ENE 8.1 mph - N/A   Overcast
4:53 AM 73.0 °F 61.0 °F 66% 30.14 in 10.0 mi East 8.1 mph - N/A   Overcast
5:53 AM 73.0 °F 60.1 °F 64% 30.15 in 10.0 mi East 6.9 mph - N/A   Mostly Cloudy
6:53 AM 73.9 °F 62.1 °F 66% 30.15 in 10.0 mi East 8.1 mph - N/A   Mostly Cloudy
7:53 AM 73.9 °F 64.9 °F 73% 30.17 in 10.0 mi East 12.7 mph - N/A   Mostly Cloudy
8:53 AM 73.9 °F 64.0 °F 71% 30.19 in 10.0 mi East 11.5 mph - N/A   Mostly Cloudy
9:53 AM 77.0 °F 63.0 °F 62% 30.19 in 10.0 mi East 10.4 mph - N/A   Mostly Cloudy
10:53 AM 78.1 °F 64.0 °F 62% 30.19 in 10.0 mi East 11.5 mph - N/A   Scattered Clouds
11:53 AM 79.0 °F 66.0 °F 64% 30.17 in 10.0 mi East 15.0 mph - N/A   Scattered Clouds
12:53 PM 78.1 °F 66.0 °F 66% 30.14 in 10.0 mi East 17.3 mph - N/A   Scattered Clouds
1:53 PM 78.1 °F 66.9 °F 68% 30.13 in 10.0 mi East 11.5 mph - N/A   Scattered Clouds
2:53 PM 75.9 °F 66.9 °F 74% 30.13 in 10.0 mi East 10.4 mph - N/A   Overcast
3:53 PM 75.9 °F 66.9 °F 74% 30.13 in 10.0 mi East 9.2 mph - N/A   Mostly Cloudy
4:53 PM 75.0 °F 66.9 °F 76% 30.14 in 10.0 mi ENE 5.8 mph - N/A   Mostly Cloudy
5:53 PM 75.0 °F 68.0 °F 79% 30.14 in 10.0 mi ENE 6.9 mph - N/A   Mostly Cloudy
6:53 PM 73.0 °F 68.0 °F 84% 30.16 in 10.0 mi East 11.5 mph - N/A   Mostly Cloudy
7:53 PM 70.0 °F 69.1 °F 97% 30.17 in 10.0 mi SSW 5.8 mph - 0.00 in Rain Light Rain
8:53 PM 70.0 °F 69.1 °F 97% 30.18 in 10.0 mi NW 5.8 mph - 0.00 in   Mostly Cloudy
9:40 PM 69.8 °F 69.8 °F 100% 30.18 in 6.0 mi South 6.9 mph - 0.01 in Rain Light Rain
9:53 PM 69.1 °F 69.1 °F 100% 30.18 in 6.0 mi SW 4.6 mph - 0.02 in Rain Light Rain
10:27 PM 69.8 °F 69.8 °F 100% 30.18 in 10.0 mi West 5.8 mph - 0.01 in   Overcast
10:53 PM 69.1 °F 69.1 °F 100% 30.18 in 10.0 mi NNW 3.5 mph - 0.01 in   Mostly Cloudy
11:53 PM 69.1 °F 69.1 °F 100% 30.16 in 10.0 mi Calm Calm - N/A   Mostly Cloudy